Year,Month,Day,Hour,Minute,Value (Times are PST for temperature in C)
2021,04,25,10,15,8.90
2021,04,25,10,16,8.90
2021,04,25,10,17,8.90
2021,04,25,10,18,8.90
2021,04,25,10,19,8.90
2021,04,25,10,20,8.90
2021,04,25,10,21,8.90
2021,04,25,10,22,8.90
2021,04,25,10,23,8.90
2021,04,25,10,24,8.90
2021,04,25,10,25,8.90
2021,04,25,10,26,8.90
2021,04,25,10,27,8.90
2021,04,25,10,28,8.90
2021,04,25,10,29,8.90
2021,04,25,10,30,8.90
2021,04,25,10,31,8.80
2021,04,25,10,32,8.80
2021,04,25,10,33,8.90
2021,04,25,10,34,8.90
2021,04,25,10,35,8.90
2021,04,25,10,36,8.90
2021,04,25,10,37,8.90
2021,04,25,10,38,8.90
2021,04,25,10,39,9.00
2021,04,25,10,40,9.00
2021,04,25,10,41,9.10
2021,04,25,10,42,9.10
2021,04,25,10,43,9.20
2021,04,25,10,44,9.20
2021,04,25,10,45,9.20
2021,04,25,10,46,9.30
2021,04,25,10,47,9.30
2021,04,25,10,48,9.30
2021,04,25,10,49,9.30
2021,04,25,10,50,9.40
2021,04,25,10,51,9.40
2021,04,25,10,52,9.40
2021,04,25,10,53,9.50
2021,04,25,10,54,9.50
2021,04,25,10,55,9.50
2021,04,25,10,56,9.60
2021,04,25,10,57,9.70
2021,04,25,10,58,9.60
2021,04,25,10,59,9.60
2021,04,25,11,00,9.70
2021,04,25,11,01,9.70
2021,04,25,11,02,9.70
2021,04,25,11,03,9.70
2021,04,25,11,04,9.70
2021,04,25,11,05,9.70
2021,04,25,11,06,9.70
2021,04,25,11,07,9.70
2021,04,25,11,08,9.70
2021,04,25,11,09,9.70
2021,04,25,11,10,9.80
2021,04,25,11,11,9.90
2021,04,25,11,12,9.90
2021,04,25,11,13,9.90
2021,04,25,11,14,9.80
2021,04,25,11,15,9.80
2021,04,25,11,16,9.70
2021,04,25,11,17,9.70
2021,04,25,11,18,9.70
2021,04,25,11,19,9.80
2021,04,25,11,20,9.80
2021,04,25,11,21,9.80
2021,04,25,11,22,9.80
2021,04,25,11,23,9.80
2021,04,25,11,24,9.80
2021,04,25,11,25,9.80
2021,04,25,11,26,9.80
2021,04,25,11,27,9.80
2021,04,25,11,28,9.80
2021,04,25,11,29,9.80
2021,04,25,11,30,9.70
2021,04,25,11,31,9.70
2021,04,25,11,32,9.70
2021,04,25,11,33,9.80
2021,04,25,11,34,9.90
2021,04,25,11,35,9.90
2021,04,25,11,36,9.90
2021,04,25,11,37,9.90
2021,04,25,11,38,9.90
2021,04,25,11,39,9.90
2021,04,25,11,40,10.00
2021,04,25,11,41,10.00
2021,04,25,11,42,10.00
2021,04,25,11,43,10.10
2021,04,25,11,44,10.10
2021,04,25,11,45,10.10
2021,04,25,11,46,10.20
2021,04,25,11,47,10.20
2021,04,25,11,48,10.30
2021,04,25,11,49,10.30
2021,04,25,11,50,10.40
2021,04,25,11,51,10.30
2021,04,25,11,52,10.20
2021,04,25,11,53,10.20
2021,04,25,11,54,10.20
2021,04,25,11,55,10.30
2021,04,25,11,56,10.30
2021,04,25,11,57,10.40
2021,04,25,11,58,10.30
2021,04,25,11,59,10.30
2021,04,25,12,00,10.30
2021,04,25,12,01,10.30
2021,04,25,12,02,10.30
2021,04,25,12,03,10.20
2021,04,25,12,04,10.20
2021,04,25,12,05,10.20
2021,04,25,12,06,10.20
2021,04,25,12,07,10.20
2021,04,25,12,08,10.20
2021,04,25,12,09,10.10
2021,04,25,12,10,10.10
2021,04,25,12,11,10.00
2021,04,25,12,12,9.90
2021,04,25,12,13,9.90
2021,04,25,12,14,9.90
2021,04,25,12,15,9.90
2021,04,25,12,16,9.90
2021,04,25,12,17,9.90
2021,04,25,12,18,9.90
2021,04,25,12,19,10.00
2021,04,25,12,20,10.00
2021,04,25,12,21,10.10
2021,04,25,12,22,10.20
2021,04,25,12,23,10.30
2021,04,25,12,24,10.30
2021,04,25,12,25,10.40
2021,04,25,12,26,10.40
2021,04,25,12,27,10.50
2021,04,25,12,28,10.60
2021,04,25,12,29,10.60
2021,04,25,12,30,10.70
2021,04,25,12,31,10.70
2021,04,25,12,32,10.70
2021,04,25,12,33,10.70
2021,04,25,12,34,10.60
2021,04,25,12,35,10.60
2021,04,25,12,36,10.60
2021,04,25,12,37,10.60
2021,04,25,12,38,10.60
2021,04,25,12,39,10.60
2021,04,25,12,40,10.70
2021,04,25,12,41,10.70
2021,04,25,12,42,10.80
2021,04,25,12,43,10.80
2021,04,25,12,44,10.80
2021,04,25,12,45,10.80
2021,04,25,12,46,10.80
2021,04,25,12,47,10.80
2021,04,25,12,48,10.80
2021,04,25,12,49,10.80
2021,04,25,12,50,10.80
2021,04,25,12,51,10.80
2021,04,25,12,52,10.80
2021,04,25,12,53,10.80
2021,04,25,12,54,10.90
2021,04,25,12,55,10.90
2021,04,25,12,56,10.90
2021,04,25,12,57,10.80
2021,04,25,12,58,10.80
2021,04,25,12,59,10.80
2021,04,25,13,00,10.80
2021,04,25,13,01,10.80
2021,04,25,13,02,10.70
2021,04,25,13,03,10.70
2021,04,25,13,04,10.60
2021,04,25,13,05,10.70
2021,04,25,13,06,10.70
2021,04,25,13,07,10.80
2021,04,25,13,08,10.80
2021,04,25,13,09,10.80
2021,04,25,13,10,10.90
2021,04,25,13,11,10.90
2021,04,25,13,12,11.00
2021,04,25,13,13,11.00
2021,04,25,13,14,11.00
2021,04,25,13,15,11.00
2021,04,25,13,16,11.00
2021,04,25,13,17,11.00
2021,04,25,13,18,11.10
2021,04,25,13,19,11.10
2021,04,25,13,20,11.10
2021,04,25,13,21,11.00
2021,04,25,13,22,11.00
2021,04,25,13,23,11.00
2021,04,25,13,24,11.00
2021,04,25,13,25,11.00
2021,04,25,13,26,11.00
2021,04,25,13,27,10.90
2021,04,25,13,28,11.00
2021,04,25,13,29,11.00
2021,04,25,13,30,11.00
2021,04,25,13,31,11.00
2021,04,25,13,32,10.90
2021,04,25,13,33,11.00
2021,04,25,13,34,11.10
2021,04,25,13,35,11.10
2021,04,25,13,36,11.20
2021,04,25,13,37,11.20
2021,04,25,13,38,11.30
2021,04,25,13,39,11.30
2021,04,25,13,40,11.30
2021,04,25,13,41,11.30
2021,04,25,13,42,11.40
2021,04,25,13,43,11.30
2021,04,25,13,44,11.30
2021,04,25,13,45,11.40
2021,04,25,13,46,11.40
2021,04,25,13,47,11.50
2021,04,25,13,48,11.50
2021,04,25,13,49,11.50
2021,04,25,13,50,11.50
2021,04,25,13,51,11.50
2021,04,25,13,52,11.50
2021,04,25,13,53,11.50
2021,04,25,13,54,11.50
2021,04,25,13,55,11.50
2021,04,25,13,56,11.50
2021,04,25,13,57,11.50
2021,04,25,13,58,11.40
2021,04,25,13,59,11.40
2021,04,25,14,00,11.40
2021,04,25,14,01,11.50
2021,04,25,14,02,11.50
2021,04,25,14,03,11.60
2021,04,25,14,04,11.60
2021,04,25,14,05,11.60
2021,04,25,14,06,11.60
2021,04,25,14,07,11.70
2021,04,25,14,08,11.70
2021,04,25,14,09,11.60
2021,04,25,14,10,11.60
2021,04,25,14,11,11.70
2021,04,25,14,12,11.70
2021,04,25,14,13,11.70
2021,04,25,14,14,11.70
2021,04,25,14,15,11.70
2021,04,25,14,16,11.70
2021,04,25,14,17,11.80
2021,04,25,14,18,11.90
2021,04,25,14,19,11.90
2021,04,25,14,20,11.90
2021,04,25,14,21,11.90
2021,04,25,14,22,12.00
2021,04,25,14,23,12.00
2021,04,25,14,24,12.10
2021,04,25,14,25,12.10
2021,04,25,14,26,12.10
2021,04,25,14,27,12.10
2021,04,25,14,28,12.20
2021,04,25,14,29,12.30
2021,04,25,14,30,12.50
2021,04,25,14,31,12.60
2021,04,25,14,32,12.70
2021,04,25,14,33,12.80
2021,04,25,14,34,12.90
2021,04,25,14,35,13.00
2021,04,25,14,36,13.20
2021,04,25,14,37,13.10
2021,04,25,14,38,13.10
2021,04,25,14,39,13.00
2021,04,25,14,40,13.00
2021,04,25,14,41,12.90
2021,04,25,14,42,12.80
2021,04,25,14,43,12.90
2021,04,25,14,44,12.80
2021,04,25,14,45,12.80
2021,04,25,14,46,12.80
2021,04,25,14,47,12.80
2021,04,25,14,48,12.70
2021,04,25,14,49,12.70
2021,04,25,14,50,12.80
2021,04,25,14,51,12.80
2021,04,25,14,52,12.80
2021,04,25,14,53,12.80
2021,04,25,14,54,12.90
2021,04,25,14,55,12.80
2021,04,25,14,56,12.80
2021,04,25,14,57,12.80
2021,04,25,14,58,12.80
2021,04,25,14,59,12.80
2021,04,25,15,00,12.80
2021,04,25,15,01,12.70
2021,04,25,15,02,12.80
2021,04,25,15,03,12.80
2021,04,25,15,04,12.80
2021,04,25,15,05,12.80
2021,04,25,15,06,12.90
2021,04,25,15,07,12.90
2021,04,25,15,08,13.00
2021,04,25,15,09,13.00
2021,04,25,15,10,13.00
2021,04,25,15,11,12.90
2021,04,25,15,12,12.80
2021,04,25,15,13,12.90
2021,04,25,15,14,13.00
2021,04,25,15,15,13.00
2021,04,25,15,16,13.10
2021,04,25,15,17,13.10
2021,04,25,15,18,13.10
2021,04,25,15,19,13.00
2021,04,25,15,20,12.90
2021,04,25,15,21,12.90
2021,04,25,15,22,12.80
2021,04,25,15,23,12.90
2021,04,25,15,24,13.10
2021,04,25,15,25,13.20
2021,04,25,15,26,13.40
2021,04,25,15,27,13.40
2021,04,25,15,28,13.40
2021,04,25,15,29,13.40
2021,04,25,15,30,13.30
2021,04,25,15,31,13.30
2021,04,25,15,32,13.30
2021,04,25,15,33,13.40
2021,04,25,15,34,13.40
2021,04,25,15,35,13.40
2021,04,25,15,36,13.40
2021,04,25,15,37,13.40
2021,04,25,15,38,13.40
2021,04,25,15,39,13.30
2021,04,25,15,40,13.20
2021,04,25,15,41,13.00
2021,04,25,15,42,12.90
2021,04,25,15,43,12.90
2021,04,25,15,44,12.90
2021,04,25,15,45,13.00
2021,04,25,15,46,13.00
2021,04,25,15,47,13.00
2021,04,25,15,48,12.90
2021,04,25,15,49,12.90
2021,04,25,15,50,12.90
2021,04,25,15,51,12.90
2021,04,25,15,52,12.90
2021,04,25,15,53,13.00
2021,04,25,15,54,13.00
2021,04,25,15,55,13.10
2021,04,25,15,56,13.10
2021,04,25,15,57,13.00
2021,04,25,15,58,12.90
2021,04,25,15,59,12.90
2021,04,25,16,00,12.80
2021,04,25,16,01,12.80
2021,04,25,16,02,12.90
2021,04,25,16,03,13.00
2021,04,25,16,04,13.00
2021,04,25,16,05,13.10
2021,04,25,16,06,13.20
2021,04,25,16,07,13.20
2021,04,25,16,08,13.10
2021,04,25,16,09,13.00
2021,04,25,16,10,13.00
2021,04,25,16,11,13.10
2021,04,25,16,12,13.20
2021,04,25,16,13,13.20
2021,04,25,16,14,13.20
2021,04,25,16,15,13.10
2021,04,25,16,16,13.10
2021,04,25,16,17,13.10
2021,04,25,16,18,13.10
2021,04,25,16,19,13.20
2021,04,25,16,20,13.20
2021,04,25,16,21,13.20
2021,04,25,16,22,13.10
2021,04,25,16,23,13.20
2021,04,25,16,24,13.20
2021,04,25,16,25,13.20
2021,04,25,16,26,13.20
2021,04,25,16,27,13.20
2021,04,25,16,28,13.10
2021,04,25,16,29,13.00
2021,04,25,16,30,13.00
2021,04,25,16,31,13.00
2021,04,25,16,32,13.00
2021,04,25,16,33,12.90
2021,04,25,16,34,12.90
2021,04,25,16,35,12.90
2021,04,25,16,36,12.80
2021,04,25,16,37,12.80
2021,04,25,16,38,12.80
2021,04,25,16,39,12.80
2021,04,25,16,40,12.70
2021,04,25,16,41,12.50
2021,04,25,16,42,12.50
2021,04,25,16,43,12.40
2021,04,25,16,44,12.40
2021,04,25,16,45,12.40
2021,04,25,16,46,12.40
2021,04,25,16,47,12.40
2021,04,25,16,48,12.40
2021,04,25,16,49,12.30
2021,04,25,16,50,12.30
2021,04,25,16,51,12.30
2021,04,25,16,52,12.30
2021,04,25,16,53,12.20
2021,04,25,16,54,12.20
2021,04,25,16,55,12.20
2021,04,25,16,56,12.10
2021,04,25,16,57,12.10
2021,04,25,16,58,12.00
2021,04,25,16,59,12.10
2021,04,25,17,00,12.10
2021,04,25,17,01,12.10
2021,04,25,17,02,12.10
2021,04,25,17,03,12.10
2021,04,25,17,04,12.10
2021,04,25,17,05,12.10
2021,04,25,17,06,12.10
2021,04,25,17,07,12.10
2021,04,25,17,08,12.10
2021,04,25,17,09,12.20
2021,04,25,17,10,12.20
2021,04,25,17,11,12.30
2021,04,25,17,12,12.30
2021,04,25,17,13,12.30
2021,04,25,17,14,12.30
2021,04,25,17,15,12.30
2021,04,25,17,16,12.20
2021,04,25,17,17,12.20
2021,04,25,17,18,12.20
2021,04,25,17,19,12.10
2021,04,25,17,20,12.10
2021,04,25,17,21,12.20
2021,04,25,17,22,12.20
2021,04,25,17,23,12.20
2021,04,25,17,24,12.20
2021,04,25,17,25,12.20
2021,04,25,17,26,12.10
2021,04,25,17,27,12.10
2021,04,25,17,28,12.00
2021,04,25,17,29,12.00
2021,04,25,17,30,11.90
2021,04,25,17,31,11.90
2021,04,25,17,32,11.90
2021,04,25,17,33,11.90
2021,04,25,17,34,11.90
2021,04,25,17,35,12.00
2021,04,25,17,36,12.00
2021,04,25,17,37,12.00
2021,04,25,17,38,11.90
2021,04,25,17,39,11.90
2021,04,25,17,40,11.90
2021,04,25,17,41,11.80
2021,04,25,17,42,11.80
2021,04,25,17,43,11.80
2021,04,25,17,44,11.80
2021,04,25,17,45,11.80
2021,04,25,17,46,11.80
2021,04,25,17,47,11.70
2021,04,25,17,48,11.80
2021,04,25,17,49,11.70
2021,04,25,17,50,11.70
2021,04,25,17,51,11.80
2021,04,25,17,52,11.70
2021,04,25,17,53,11.70
2021,04,25,17,54,11.70
2021,04,25,17,55,11.70
2021,04,25,17,56,11.70
2021,04,25,17,57,11.70
2021,04,25,17,58,11.60
2021,04,25,17,59,11.60
2021,04,25,18,00,11.60
2021,04,25,18,01,11.60
2021,04,25,18,02,11.60
2021,04,25,18,03,11.60
2021,04,25,18,04,11.60
2021,04,25,18,05,11.60
2021,04,25,18,06,11.60
2021,04,25,18,07,11.60
2021,04,25,18,08,11.60
2021,04,25,18,09,11.60
2021,04,25,18,10,11.50
2021,04,25,18,11,11.50
2021,04,25,18,12,11.50
2021,04,25,18,13,11.40
2021,04,25,18,14,11.40
2021,04,25,18,15,11.40
2021,04,25,18,16,11.40
2021,04,25,18,17,11.40
2021,04,25,18,18,11.40
2021,04,25,18,19,11.40
2021,04,25,18,20,11.40
2021,04,25,18,21,11.40
2021,04,25,18,22,11.40
2021,04,25,18,23,11.40
2021,04,25,18,24,11.40
2021,04,25,18,25,11.40
2021,04,25,18,26,11.40
2021,04,25,18,27,11.40
2021,04,25,18,28,11.40
2021,04,25,18,29,11.40
2021,04,25,18,30,11.40
2021,04,25,18,31,11.40
2021,04,25,18,32,11.40
2021,04,25,18,33,11.40
2021,04,25,18,34,11.30
2021,04,25,18,35,11.30
2021,04,25,18,36,11.30
2021,04,25,18,37,11.30
2021,04,25,18,38,11.30
2021,04,25,18,39,11.30
2021,04,25,18,40,11.30
2021,04,25,18,41,11.30
2021,04,25,18,42,11.30
2021,04,25,18,43,11.30
2021,04,25,18,44,11.30
2021,04,25,18,45,11.40
2021,04,25,18,46,11.40
2021,04,25,18,47,11.30
2021,04,25,18,48,11.30
2021,04,25,18,49,11.30
2021,04,25,18,50,11.30
2021,04,25,18,51,11.30
2021,04,25,18,52,11.30
2021,04,25,18,53,11.30
2021,04,25,18,54,11.30
2021,04,25,18,55,11.30
2021,04,25,18,56,11.30
2021,04,25,18,57,11.30
2021,04,25,18,58,11.30
2021,04,25,18,59,11.40
2021,04,25,19,00,11.40
2021,04,25,19,01,11.40
2021,04,25,19,02,11.40
2021,04,25,19,03,11.30
2021,04,25,19,04,11.30
2021,04,25,19,05,11.30
2021,04,25,19,06,11.30
2021,04,25,19,07,11.20
2021,04,25,19,08,11.20
2021,04,25,19,09,11.20
2021,04,25,19,10,11.20
2021,04,25,19,11,11.10
2021,04,25,19,12,11.10
2021,04,25,19,13,11.10
2021,04,25,19,14,11.10
2021,04,25,19,15,11.00
2021,04,25,19,16,11.00
2021,04,25,19,17,11.00
2021,04,25,19,18,10.90
2021,04,25,19,19,10.90
2021,04,25,19,20,10.90
2021,04,25,19,21,10.80
2021,04,25,19,22,10.80
2021,04,25,19,23,10.80
2021,04,25,19,24,10.80
2021,04,25,19,25,10.80
2021,04,25,19,26,10.70
2021,04,25,19,27,10.70
2021,04,25,19,28,10.70
2021,04,25,19,29,10.70
2021,04,25,19,30,10.60
2021,04,25,19,31,10.60
2021,04,25,19,32,10.60
2021,04,25,19,33,10.50
2021,04,25,19,34,10.50
2021,04,25,19,35,10.50
2021,04,25,19,36,10.40
2021,04,25,19,37,10.40
2021,04,25,19,38,10.40
2021,04,25,19,39,10.40
2021,04,25,19,40,10.40
2021,04,25,19,41,10.40
2021,04,25,19,42,10.40
2021,04,25,19,43,10.40
2021,04,25,19,44,10.40
2021,04,25,19,45,10.40
2021,04,25,19,46,10.40
2021,04,25,19,47,10.30
2021,04,25,19,48,10.30
2021,04,25,19,49,10.30
2021,04,25,19,50,10.30
2021,04,25,19,51,10.30
2021,04,25,19,52,10.30
2021,04,25,19,53,10.30
2021,04,25,19,54,10.30
2021,04,25,19,55,10.30
2021,04,25,19,56,10.30
2021,04,25,19,57,10.30
2021,04,25,19,58,10.30
2021,04,25,19,59,10.30
2021,04,25,20,00,10.30
2021,04,25,20,01,10.30
2021,04,25,20,02,10.30
2021,04,25,20,03,10.30
2021,04,25,20,04,10.30
2021,04,25,20,05,10.30
